• In Hungary
  • List of Countries
  • For 7 days
  • Water Temperature
  • Satellite Maps
  • Weather Map
  • News
  • Weather Widgets
  • user-avatar
    Login

    Hourly Weather Ocotal

    Today, 24 November, Friday

    Time Temperature Precipitation Wind Pressure Humidity
    00:00 +21°C° 0 mm 1 mps 708 mmHg 87%
    01:00 +20°C° 0 mm 1 mps 707 mmHg 88%
    02:00 +20°C° 0 mm 1 mps 707 mmHg 90%
    03:00 +19°C° 0 mm 1 mps 707 mmHg 91%
    04:00 +19°C° 0 mm 1 mps 707 mmHg 91%
    05:00 +19°C° 0 mm 1 mps 707 mmHg 92%
    06:00 +18°C° 0 mm 1 mps 707 mmHg 92%
    07:00 +20°C° 0 mm 2 mps 708 mmHg 82%
    08:00 +23°C° 0 mm 2 mps 708 mmHg 72%
    09:00 +26°C° 0 mm 2 mps 709 mmHg 62%
    10:00 +27°C° 0 mm 2 mps 709 mmHg 56%
    11:00 +29°C° 0 mm 2 mps 708 mmHg 51%
    12:00 +30°C° 0 mm 2 mps 708 mmHg 46%
    13:00 +30°C° 0 mm 2 mps 708 mmHg 46%
    14:00 +30°C° 0 mm 2 mps 707 mmHg 47%
    15:00 +30°C° 0 mm 2 mps 706 mmHg 48%
    16:00 +28°C° 0 mm 2 mps 707 mmHg 56%
    17:00 +26°C° 0 mm 2 mps 707 mmHg 64%
    18:00 +24°C° 0 mm 1 mps 707 mmHg 72%
    19:00 +23°C° 0 mm 1 mps 707 mmHg 76%
    20:00 +22°C° 0 mm 1 mps 708 mmHg 80%
    21:00 +21°C° 0 mm 1 mps 709 mmHg 84%
    22:00 +21°C° 0 mm 1 mps 709 mmHg 86%
    23:00 +21°C° 0 mm 1 mps 709 mmHg 88%

    Tomorrow, 25 November, Saturday

    Time Temperature Precipitation Wind Pressure Humidity
    00:00 +20°C° 0 mm 1 mps 708 mmHg 90%
    01:00 +20°C° 0 mm 1 mps 708 mmHg 91%
    02:00 +20°C° 0 mm 1 mps 708 mmHg 92%
    03:00 +19°C° 0 mm 1 mps 708 mmHg 93%
    04:00 +19°C° 0 mm 1 mps 708 mmHg 93%
    05:00 +19°C° 0 mm 1 mps 708 mmHg 93%
    06:00 +19°C° 0 mm 1 mps 708 mmHg 93%
    07:00 +21°C° 0 mm 1 mps 709 mmHg 83%
    08:00 +24°C° 0 mm 2 mps 709 mmHg 72%
    09:00 +26°C° 0 mm 2 mps 710 mmHg 61%
    10:00 +28°C° 0 mm 2 mps 709 mmHg 57%
    11:00 +29°C° 0 mm 2 mps 709 mmHg 53%
    12:00 +30°C° 0 mm 3 mps 709 mmHg 49%
    13:00 +30°C° 0 mm 3 mps 708 mmHg 50%
    14:00 +30°C° 0 mm 2 mps 707 mmHg 52%
    15:00 +30°C° 0 mm 2 mps 706 mmHg 53%
    16:00 +28°C° 0 mm 2 mps 707 mmHg 61%
    17:00 +26°C° 0 mm 2 mps 707 mmHg 68%
    18:00 +24°C° 0 mm 1 mps 707 mmHg 75%
    19:00 +23°C° 0 mm 1 mps 708 mmHg 78%
    20:00 +22°C° 0 mm 1 mps 708 mmHg 81%
    21:00 +22°C° 0 mm 1 mps 709 mmHg 85%
    22:00 +21°C° 0 mm 1 mps 709 mmHg 87%
    23:00 +21°C° 0 mm 1 mps 709 mmHg 89%

    Day after tomorrow, 26 November, Sunday

    Time Temperature Precipitation Wind Pressure Humidity
    00:00 +21°C° 0 mm 1 mps 709 mmHg 91%
    01:00 +20°C° 0 mm 1 mps 708 mmHg 92%
    02:00 +20°C° 0 mm 1 mps 708 mmHg 93%
    03:00 +20°C° 0 mm 1 mps 707 mmHg 94%
    04:00 +20°C° 0 mm 1 mps 708 mmHg 94%
    05:00 +20°C° 0 mm 1 mps 708 mmHg 94%
    06:00 +20°C° 0 mm 1 mps 708 mmHg 95%
    07:00 +21°C° 0 mm 2 mps 709 mmHg 85%
    08:00 +24°C° 0 mm 2 mps 709 mmHg 75%
    09:00 +26°C° 0 mm 2 mps 710 mmHg 66%
    10:00 +28°C° 0 mm 2 mps 710 mmHg 61%
    11:00 +29°C° 0 mm 3 mps 709 mmHg 57%
    12:00 +30°C° 0 mm 3 mps 708 mmHg 53%
    13:00 +30°C° 0 mm 3 mps 708 mmHg 54%
    14:00 +30°C° 0 mm 3 mps 707 mmHg 55%
    15:00 +30°C° 0 mm 3 mps 707 mmHg 56%
    16:00 +27°C° 0.1 mm 3 mps 707 mmHg 65%
    17:00 +25°C° 0.1 mm 2 mps 707 mmHg 74%
    18:00 +23°C° 0.1 mm 2 mps 707 mmHg 83%
    19:00 +23°C° 0 mm 2 mps 708 mmHg 86%
    20:00 +21°C° 0 mm 2 mps 708 mmHg 88%
    21:00 +20°C° 0 mm 2 mps 709 mmHg 91%
    22:00 +20°C° 0 mm 2 mps 708 mmHg 92%
    23:00 +20°C° 0 mm 2 mps 708 mmHg 93%

    27 November, Monday

    Time Temperature Precipitation Wind Pressure Humidity
    00:00 +19°C° 0 mm 2 mps 708 mmHg 94%
    01:00 +19°C° 0 mm 2 mps 708 mmHg 93%
    02:00 +19°C° 0 mm 2 mps 707 mmHg 93%
    03:00 +19°C° 0 mm 2 mps 707 mmHg 93%
    04:00 +19°C° 0 mm 2 mps 707 mmHg 93%
    05:00 +19°C° 0 mm 2 mps 708 mmHg 92%
    06:00 +19°C° 0 mm 2 mps 708 mmHg 92%
    07:00 +20°C° 0 mm 2 mps 708 mmHg 83%
    08:00 +22°C° 0 mm 3 mps 709 mmHg 74%
    09:00 +25°C° 0 mm 3 mps 709 mmHg 65%
    10:00 +27°C° 0 mm 3 mps 709 mmHg 60%
    11:00 +28°C° 0 mm 4 mps 709 mmHg 55%
    12:00 +29°C° 0 mm 4 mps 708 mmHg 51%
    13:00 +29°C° 0 mm 4 mps 708 mmHg 52%
    14:00 +29°C° 0 mm 4 mps 707 mmHg 54%
    15:00 +28°C° 0 mm 4 mps 706 mmHg 55%
    16:00 +27°C° 0 mm 3 mps 707 mmHg 62%
    17:00 +25°C° 0 mm 2 mps 707 mmHg 69%
    18:00 +23°C° 0 mm 2 mps 707 mmHg 76%
    19:00 +21°C° 0 mm 2 mps 708 mmHg 80%
    20:00 +20°C° 0 mm 2 mps 708 mmHg 84%
    21:00 +19°C° 0 mm 2 mps 708 mmHg 88%
    22:00 +19°C° 0 mm 2 mps 708 mmHg 89%
    23:00 +19°C° 0 mm 1 mps 708 mmHg 91%

    28 November, Tuesday

    Time Temperature Precipitation Wind Pressure Humidity
    00:00 +19°C° 0 mm 1 mps 708 mmHg 92%
    01:00 +19°C° 0 mm 1 mps 707 mmHg 92%
    02:00 +18°C° 0 mm 1 mps 707 mmHg 93%
    03:00 +18°C° 0 mm 1 mps 707 mmHg 93%
    04:00 +18°C° 0 mm 1 mps 707 mmHg 93%
    05:00 +18°C° 0 mm 1 mps 707 mmHg 93%
    06:00 +18°C° 0 mm 1 mps 707 mmHg 93%
    07:00 +19°C° 0 mm 2 mps 708 mmHg 81%
    08:00 +23°C° 0 mm 2 mps 709 mmHg 70%
    09:00 +25°C° 0 mm 2 mps 709 mmHg 58%
    10:00 +27°C° 0 mm 2 mps 709 mmHg 52%
    11:00 +28°C° 0 mm 3 mps 709 mmHg 47%
    12:00 +30°C° 0 mm 3 mps 708 mmHg 41%
    13:00 +30°C° 0 mm 3 mps 708 mmHg 43%
    14:00 +30°C° 0 mm 3 mps 707 mmHg 45%
    15:00 +30°C° 0 mm 3 mps 706 mmHg 47%
    16:00 +28°C° 0 mm 2 mps 707 mmHg 55%
    17:00 +26°C° 0 mm 2 mps 707 mmHg 64%
    18:00 +24°C° 0 mm 1 mps 707 mmHg 72%
    19:00 +23°C° 0 mm 1 mps 708 mmHg 76%
    20:00 +22°C° 0 mm 1 mps 708 mmHg 80%
    21:00 +22°C° 0 mm 1 mps 709 mmHg 84%
    22:00 +21°C° 0 mm 1 mps 708 mmHg 87%
    23:00 +21°C° 0 mm 1 mps 708 mmHg 90%

    29 November, Wednesday

    Time Temperature Precipitation Wind Pressure Humidity
    00:00 +21°C° 0 mm 1 mps 708 mmHg 92%
    01:00 +21°C° 0 mm 1 mps 708 mmHg 93%
    02:00 +20°C° 0 mm 1 mps 708 mmHg 94%
    03:00 +20°C° 0 mm 1 mps 707 mmHg 95%
    04:00 +20°C° 0 mm 1 mps 708 mmHg 95%
    05:00 +20°C° 0 mm 1 mps 708 mmHg 95%
    06:00 +20°C° 0 mm 1 mps 708 mmHg 95%
    07:00 +21°C° 0 mm 2 mps 709 mmHg 86%
    08:00 +24°C° 0 mm 2 mps 710 mmHg 76%
    09:00 +26°C° 0 mm 3 mps 710 mmHg 67%
    10:00 +28°C° 0 mm 3 mps 710 mmHg 62%
    11:00 +29°C° 0 mm 3 mps 709 mmHg 58%
    12:00 +30°C° 0 mm 3 mps 709 mmHg 54%
    13:00 +30°C° 0 mm 3 mps 708 mmHg 54%
    14:00 +30°C° 0 mm 3 mps 708 mmHg 54%
    15:00 +30°C° 0 mm 3 mps 707 mmHg 54%
    16:00 +28°C° 0 mm 3 mps 707 mmHg 63%
    17:00 +26°C° 0 mm 2 mps 708 mmHg 71%
    18:00 +24°C° 0 mm 2 mps 708 mmHg 80%
    19:00 +24°C° 0 mm 2 mps 708 mmHg 84%
    20:00 +23°C° 0 mm 2 mps 709 mmHg 87%
    21:00 +21°C° 0 mm 2 mps 709 mmHg 91%
    22:00 +21°C° 0 mm 2 mps 709 mmHg 92%
    23:00 +21°C° 0 mm 2 mps 709 mmHg 93%
    Show more